Location: Eisingen in Unterfranken
(49.7591°N, 9.8347°E)
Time: 13:21:44
(UTC+01:00)

N. Korean satellite - Pass Details

Date: 07 December 2022
Orbit: 407 x 441 km, 97.3° (Epoch: 05 February)

Event Time Altitude Azimuth Distance (km) Brightness Sun altitude
Rises 07:05:57 0° 356° (N) 2,520 9.9 -8.9°
Reaches altitude 10° 07:08:52 10° 329° (NNW) 1,629 8.7 -8.5°
Maximum altitude 07:10:36 13° 299° (WNW) 1,424 8.3 -8.2°
Drops below altitude 10° 07:12:20 10° 269° (W) 1,610 8.7 -7.9°
Sets 07:15:11 0° 242° (WSW) 2,465 9.8 -7.5°
